[[{"header":{"parameterUnit":"m.s-1","parameterCategory":1,"la1":30.2991,"la2":30.254,"lo1":-89.0895,"lo2":-89.0444,"dy":0.0017,"dx":0.0017,"nx":28,"ny":28,"refTime":"2023-08-24T21:00:00:Z","depth":0,"parameterNumber":2,"parameterNumberName":"U-component_of_WINDS"},"data":[0,0,0,0,0,0,0,0,0,0,0,0,0,0,0,0,0,0,0,0,0,0,0,0,0,0,0,0,0,0,0,0,0,0,0,0,0,0,0,0,0,0,0,0,0,0,0,0,0,0,0,0,0,0,0,0,0,0,4.2354,4.2355,0,4.2487,4.2488,4.249,4.2441,4.2438,4.2435,4.2432,4.257,4.2576,4.2582,0,0,0,0,0,0,0,0,0,0,0,0,0,4.2058,4.2064,4.2353,4.2355,4.2357,4.2486,4.2488,4.249,4.2442,4.2438,4.2434,4.2431,4.2567,4.2575,4.2583,0,0,0,0,0,0,0,0,0,0,0,0,0,4.2188,4.2065,4.2353,4.2348,4.2349,4.2486,4.2488,4.249,4.2442,4.2438,4.2433,4.2429,4.2565,4.2574,4.2584,4.2734,0,0,4.2613,4.2618,0,0,0,0,0,0,0,0,4.2181,4.2199,4.2347,4.2349,4.235,4.2443,4.2434,4.2572,4.2444,4.2407,4.2432,4.2427,4.2531,4.2543,4.2578,4.274,4.2746,4.2614,4.262,4.2624,4.2627,0,0,0,0,0,0,0,4.2172,4.2193,4.2406,4.235,4.2351,4.2339,4.2353,4.246,4.2493,4.241,4.2407,4.2423,4.2531,4.2569,4.2581,4.2748,4.2614,4.2623,4.2629,4.2632,4.3037,4.3042,0,0,0,0,0,0,4.2162,4.2186,4.2402,4.241,4.2253,4.2348,4.2364,4.2417,4.2491,4.2498,4.2427,4.242,4.2555,4.257,4.2586,4.2764,4.2624,4.2633,4.2639,4.3032,4.3038,4.3044,0,0,0,0,0,0,4.2156,4.2182,4.2397,4.2297,4.2324,4.2358,4.2419,4.2422,4.246,4.2504,4.251,4.2459,4.2552,4.2572,4.2697,4.2768,4.2638,4.2647,4.3027,4.3034,4.3041,4.3122,0,0,0,0,0,0,4.2148,4.218,4.2237,4.2299,4.2329,4.2506,4.2424,4.2428,4.2477,4.247,4.2536,4.2543,4.255,4.2682,4.2706,4.2779,4.2654,4.302,4.303,4.3039,4.3113,4.3132,4.3147,0,0,0,0,0,4.2137,4.2256,4.224,4.2267,4.2401,4.251,4.2527,4.2532,4.2483,4.254,4.2568,4.2541,4.2757,4.2696,4.2722,4.2799,4.3016,4.3027,4.3038,4.3106,4.3128,4.3147,0,0,0,0,0,0,4.2202,4.2264,4.2247,4.2389,4.2445,4.2501,4.2574,4.2556,4.2626,4.2617,4.262,4.2636,4.2763,4.2794,4.2725,4.2946,4.2879,4.2896,4.2921,4.2943,4.2959,4.2948,4.2662,0,0,0,0,0,4.2233,4.2316,4.2365,4.2485,4.2514,4.2539,4.2587,4.2586,4.2643,4.2667,4.2704,4.2761,4.2841,4.2894,4.2971,4.3118,4.3131,4.3184,4.3201,4.3215,4.3228,4.3307,4.333,4.308,4.308,4.308,0,0,4.2297,4.2341,4.2393,4.2499,4.2542,4.2627,4.2559,4.2653,4.2716,4.2681,4.28,4.2829,4.2893,4.3029,4.3091,4.3059,4.33,4.3229,4.3239,4.3246,4.332,4.3344,4.3365,4.3088,4.3087,4.3085,0,0,4.2457,4.25,4.2603,4.2647,4.2713,4.2729,4.2754,4.2814,4.2831,4.2951,4.2926,4.3001,4.314,4.3186,4.3228,4.3404,4.3381,4.343,4.3517,4.3593,4.3613,4.363,4.3691,4.3713,4.3444,4.3444,4.3444,0,4.2529,4.2656,4.2659,4.2754,4.2801,4.2773,4.2877,4.292,4.3007,4.304,4.3002,4.3175,4.3216,4.3362,4.3404,4.344,4.3468,4.3421,4.361,4.3627,4.3643,4.3701,4.3724,4.3449,4.3449,4.3448,4.3448,0,4.274,4.2828,4.2904,4.2988,4.3043,4.3143,4.3161,4.3217,4.3211,4.3231,4.3352,4.3401,4.3486,4.3521,4.3517,4.3665,4.3643,4.3608,4.3539,4.3672,4.3726,4.3749,4.3457,4.3455,4.3453,4.3452,0,0,4.2944,4.3027,4.3055,4.3091,4.3161,4.3229,4.3327,4.341,4.3456,4.3518,4.3599,4.3717,4.3684,4.3732,4.3732,4.38,4.3933,4.3756,4.3757,4.3785,4.4098,4.4122,4.4147,4.3919,4.3924,4.3927,4.4091,0,4.3107,4.3278,4.3283,4.3439,4.352,4.3494,4.3579,4.3631,4.3652,4.3724,4.3748,4.383,4.3782,4.381,4.3876,4.3903,4.3996,4.3892,4.3993,4.3997,4.3975,4.4176,4.4202,4.4355,4.4113,4.4117,4.4119,0,4.3321,4.3387,4.3551,4.3607,4.3641,4.3717,4.3792,4.3861,4.3919,4.393,4.3982,4.3973,4.4072,4.4003,4.4139,4.4068,4.411,4.413,4.4136,4.4143,4.4064,4.4187,4.4404,4.4426,4.4153,4.4151,4.4148,0,4.3449,4.358,4.3694,4.3727,4.3797,4.385,4.3882,4.3935,4.3984,4.405,4.4081,4.4158,4.42,4.426,4.4272,4.422,4.4407,4.4339,4.4418,4.4417,4.4456,4.4453,4.4681,4.4488,4.4488,4.4487,4.4487,0,4.363,4.3731,4.3753,4.3823,4.3934,4.394,4.405,4.4078,4.4125,4.42,4.4184,4.4254,4.4266,4.4339,4.4349,4.4459,4.4479,4.4489,4.449,4.449,4.4488,4.4515,4.4504,4.4493,4.4492,4.4491,4.449,0,4.3792,4.3811,4.3933,4.3989,4.4005,4.4085,4.4132,4.4198,4.4218,4.4312,4.4335,4.4366,4.4451,4.4469,4.457,4.4577,4.4706,4.4698,4.4686,4.4684,4.4761,4.4753,4.5012,4.5046,4.4834,4.4836,4.4837,0,4.3905,4.3981,4.4044,4.4092,4.4126,4.4205,4.4254,4.4262,4.4314,4.4385,4.4443,4.4526,4.4593,4.473,4.4761,4.4838,4.483,4.4916,4.4841,4.4837,4.4828,4.4822,4.4829,4.4929,4.4931,4.4933,4.4935,0,4.4102,4.4107,4.4178,4.4253,4.4312,4.4371,4.4427,4.4468,4.4484,4.4543,4.4629,4.4681,4.4783,4.4865,4.4942,4.4974,4.4957,4.4958,4.498,4.4978,4.4967,4.4971,4.4722,4.4952,4.495,4.4949,4.4948,4.4947,4.4241,4.4307,4.4361,4.444,4.4483,4.4536,4.46,4.4628,4.4699,4.4783,4.4784,4.4877,4.4932,4.5033,4.5071,4.5144,4.5117,4.5149,4.5157,4.5164,4.517,4.4958,4.5158,4.5158,4.5157,4.5157,4.5157,0,4.4435,4.4468,4.4541,4.4619,4.4682,4.466,4.4721,4.4774,4.4857,4.4909,4.4975,4.5073,4.5152,4.519,4.5268,4.5319,4.5313,4.5339,4.5334,4.5341,4.5191,4.5162,4.5343,4.5343,4.5343,4.5343,4.5342,4.5342,4.4543,4.4652,4.4664,4.4794,4.4827,4.4917,4.4954,4.5002,4.5044,4.5153,4.5219,4.5243,4.5289,4.537,4.5442,4.5451,4.5479,4.5509,4.5514,4.5371,4.5352,4.5334,4.5308,4.5516,4.5516,4.5658,4.5659,4.566]},{"header":{"parameterUnit":"m.s-1","parameterCategory":1,"la1":30.2991,"la2":30.254,"lo1":-89.0895,"lo2":-89.0444,"dy":0.0017,"dx":0.0017,"nx":28,"ny":28,"refTime":"2023-08-24T21:00:00:Z","depth":0,"parameterNumber":3,"parameterNumberName":"V-component_of_WINDS"},"data":[0,0,0,0,0,0,0,0,0,0,0,0,0,0,0,0,0,0,0,0,0,0,0,0,0,0,0,0,0,0,0,0,0,0,0,0,0,0,0,0,0,0,0,0,0,0,0,0,0,0,0,0,0,0,0,0,0,0,1.7797,1.7798,0,1.7836,1.7836,1.7836,1.78,1.7798,1.7797,1.7795,1.7833,1.7835,1.7838,0,0,0,0,0,0,0,0,0,0,0,0,0,1.7691,1.7693,1.7797,1.7798,1.7798,1.7835,1.7836,1.7836,1.78,1.7798,1.7797,1.7795,1.7832,1.7835,1.7838,0,0,0,0,0,0,0,0,0,0,0,0,0,1.7734,1.7693,1.7797,1.7785,1.7784,1.7835,1.7836,1.7837,1.78,1.7798,1.7796,1.7794,1.7832,1.7835,1.7838,1.7904,0,0,1.7849,1.7851,0,0,0,0,0,0,0,0,1.7731,1.7738,1.7786,1.7785,1.7785,1.7811,1.7812,1.7859,1.7801,1.7794,1.7795,1.7793,1.7827,1.7831,1.7843,1.7906,1.7907,1.785,1.7852,1.7853,1.7854,0,0,0,0,0,0,0,1.7728,1.7736,1.7812,1.7787,1.7786,1.7776,1.778,1.7821,1.7822,1.7794,1.7792,1.7797,1.7827,1.784,1.7844,1.7908,1.7849,1.7853,1.7855,1.7856,1.8025,1.8028,0,0,0,0,0,0,1.7727,1.7734,1.7811,1.7813,1.7752,1.778,1.7784,1.7805,1.7822,1.7822,1.7799,1.7795,1.7835,1.784,1.7845,1.7922,1.7853,1.7857,1.7859,1.8023,1.8026,1.8028,0,0,0,0,0,0,1.7725,1.7734,1.781,1.7773,1.7782,1.7784,1.7807,1.7806,1.7819,1.7825,1.7825,1.7812,1.7833,1.784,1.7889,1.7923,1.7858,1.7861,1.802,1.8024,1.8027,1.8078,0,0,0,0,0,0,1.7722,1.7734,1.7759,1.7774,1.7784,1.7854,1.7809,1.7809,1.7826,1.7821,1.7838,1.7838,1.7832,1.7884,1.7893,1.7927,1.7864,1.8017,1.8022,1.8026,1.8073,1.8083,1.8091,0,0,0,0,0,1.7718,1.7772,1.7761,1.777,1.7816,1.7856,1.7862,1.7854,1.7829,1.7854,1.7857,1.7838,1.7918,1.789,1.7899,1.7935,1.8015,1.802,1.8026,1.8069,1.8081,1.8091,0,0,0,0,0,0,1.7761,1.7773,1.7761,1.7821,1.7838,1.785,1.7882,1.7867,1.7891,1.7886,1.7875,1.7878,1.7931,1.7937,1.7906,1.7998,1.7962,1.797,1.7992,1.8003,1.8012,1.8009,1.7867,0,0,0,0,0,1.7777,1.781,1.7819,1.7871,1.788,1.788,1.7897,1.7889,1.7906,1.7913,1.792,1.7937,1.7965,1.7985,1.8012,1.8074,1.8077,1.8103,1.8112,1.8119,1.8125,1.8158,1.817,1.8046,1.8046,1.8046,0,0,1.7811,1.7822,1.7843,1.788,1.7892,1.7925,1.7886,1.7923,1.7947,1.7918,1.7966,1.7972,1.7989,1.8045,1.807,1.8052,1.816,1.8126,1.8131,1.8134,1.8165,1.8177,1.8187,1.8049,1.8049,1.8048,0,0,1.789,1.7902,1.7947,1.796,1.7979,1.7978,1.7989,1.8003,1.8006,1.8053,1.8032,1.8061,1.8111,1.8124,1.8137,1.8221,1.8203,1.823,1.8276,1.8308,1.8318,1.8327,1.8356,1.8367,1.8236,1.8237,1.8237,0,1.793,1.798,1.7971,1.801,1.8026,1.8002,1.8046,1.8059,1.8086,1.8097,1.8077,1.8139,1.8149,1.8208,1.8228,1.824,1.8251,1.8228,1.8318,1.8326,1.8334,1.8362,1.8373,1.824,1.8239,1.8239,1.8239,0,1.8028,1.8063,1.8096,1.8123,1.8143,1.8185,1.8181,1.8202,1.8193,1.8194,1.8242,1.8253,1.8282,1.8295,1.8286,1.8353,1.8341,1.8319,1.8283,1.8349,1.8375,1.8386,1.8244,1.8243,1.8242,1.8241,0,0,1.8136,1.8157,1.8169,1.8181,1.82,1.8226,1.8266,1.8294,1.8312,1.8331,1.8364,1.8407,1.8387,1.8402,1.8394,1.8422,1.8487,1.8397,1.8397,1.8413,1.856,1.8577,1.8589,1.8476,1.8478,1.8479,1.8559,0,1.8215,1.8285,1.8278,1.8344,1.8376,1.8353,1.8387,1.8402,1.8404,1.8431,1.8433,1.8463,1.8435,1.8444,1.8471,1.8474,1.8517,1.8468,1.8505,1.8507,1.8502,1.8603,1.862,1.8695,1.8569,1.8571,1.8572,0,1.8317,1.834,1.841,1.8424,1.8437,1.8468,1.8493,1.8519,1.8535,1.8535,1.8552,1.8539,1.8578,1.854,1.8594,1.8561,1.8576,1.8579,1.8582,1.8585,1.8544,1.8609,1.8719,1.873,1.8588,1.8587,1.8586,0,1.8388,1.8437,1.8484,1.8495,1.8512,1.8535,1.8543,1.8557,1.8574,1.8596,1.8607,1.8633,1.8647,1.8667,1.8661,1.8634,1.8716,1.8678,1.8716,1.8716,1.8734,1.8733,1.8848,1.8744,1.8744,1.8743,1.8743,0,1.8478,1.8521,1.8517,1.8546,1.8594,1.8584,1.8632,1.8637,1.8649,1.8679,1.866,1.8688,1.8679,1.8706,1.8702,1.8746,1.8753,1.8753,1.8751,1.8755,1.8755,1.8764,1.8759,1.8746,1.8746,1.8745,1.8745,0,1.8565,1.8564,1.8614,1.8627,1.8631,1.8665,1.8675,1.8703,1.8703,1.874,1.8749,1.8749,1.878,1.8776,1.8811,1.8808,1.8863,1.8855,1.8858,1.8856,1.8895,1.8891,1.9019,1.9036,1.8921,1.8922,1.8923,0,1.8623,1.8655,1.8671,1.869,1.87,1.873,1.8748,1.874,1.8759,1.8779,1.8804,1.8833,1.8856,1.8907,1.891,1.8936,1.8928,1.8972,1.8932,1.8934,1.8929,1.8927,1.893,1.8979,1.8981,1.8982,1.8983,0,1.8724,1.8722,1.8748,1.8775,1.8796,1.8817,1.8835,1.8851,1.8844,1.8867,1.8898,1.8916,1.8952,1.8981,1.9005,1.9013,1.8997,1.8995,1.9005,1.9009,1.9009,1.9009,1.8879,1.8992,1.8991,1.899,1.899,1.899,1.8798,1.8826,1.8842,1.8871,1.8884,1.8902,1.8928,1.8932,1.8958,1.8987,1.898,1.9016,1.903,1.9062,1.9072,1.9099,1.9083,1.9098,1.9102,1.9106,1.911,1.9005,1.9104,1.9103,1.9103,1.9103,1.9103,0,1.8898,1.8907,1.8935,1.8961,1.8985,1.8968,1.8987,1.9008,1.9039,1.9055,1.9078,1.9114,1.9142,1.9148,1.9174,1.9195,1.9188,1.9202,1.9201,1.9202,1.9123,1.9111,1.9207,1.9207,1.9207,1.9207,1.9207,1.9207,1.8953,1.9,1.8999,1.9052,1.906,1.9095,1.9107,1.9123,1.9135,1.9177,1.92,1.9204,1.9215,1.9242,1.9267,1.9268,1.9278,1.9295,1.9293,1.9219,1.9208,1.9198,1.9187,1.9298,1.9298,1.937,1.9371,1.9372]}]]